Location: Kergonan
(48.2337°N, 4.5518°W)
Time: 21:28:29
(UTC+00:00)

Cosmos 1606 Rocket - Pass Details

Date: 18 January 2020
Orbit: 602 x 633 km, 82.5° (Epoch: 18 February)

Event Time Altitude Azimuth Distance (km) Brightness Sun altitude
Rises 06:18:36 0° 185° (S) 2,912 7.1 -16.8°
Reaches altitude 10° 06:20:50 10° 185° (S) 2,007 6.3 -16.5°
Maximum altitude 06:25:17 83° 99° (E) 640 3.6 -15.7°
Drops below altitude 10° 06:29:45 10° 11° (N) 2,008 6.1 -15.0°
Sets 06:31:59 0° 11° (N) 2,915 7.0 -14.7°
